Regional Weather Roundup
Issued by NWS

Home | Current Version | Previous Version | Text Only | Print | Product List | Glossary On
Versions: 1 2 3 4 5 6 7 8 9 10 11 12 13 14 15 16 17 18 19 20 21 22 23 24 25 26 27 28
000
ASUS45 KREV 270010
RWRNV
NEVADA REGIONAL WEATHER ROUNDUP
NATIONAL WEATHER SERVICE RENO NV
500 PM PDT MON SEP 26 2016

NOTE: "FAIR" INDICATES FEW OR NO CLOUDS BELOW 12,000 FEET WITH NO
SIGNIFICANT WEATHER AND/OR OBSTRUCTIONS TO VISIBILITY.

NVZ001-003-004-270100-
WESTERN NEVADA

CITY           SKY/WX    TMP DP  RH WIND       PRES   REMARKS
RENO           SUNNY     86  27  11 E7        30.16F
6HR MIN TEMP:  71; 6HR MAX TEMP:  87;

CARSON CITY    FAIR      84  21  10 E13G20    30.19F
MINDEN         FAIR      84  25  11 NW15      30.17F
PYRAMID LAKE     N/A     77 N/A N/A CALM        N/A
FALLON         SUNNY     87  39  18 N6        30.14F
6HR MIN TEMP:  73; 6HR MAX TEMP:  87;

LOVELOCK       SUNNY     84  29  13 SE5       30.15F
6HR MIN TEMP:  74; 6HR MAX TEMP:  85;

HAWTHORNE        N/A     86  28  12 CALM      30.15F
$$

NVZ002-CAZ072-073-270100-
NORTHERN AND CENTRAL SIERRA

CITY           SKY/WX    TMP DP  RH WIND       PRES   REMARKS
S. LAKE TAHOE  SUNNY     78  29  16 NE7       30.27F
6HR MIN TEMP:  70; 6HR MAX TEMP:  81;

TRUCKEE        SUNNY     81  30  16 W12       30.26S
                   6HR MAX TEMP:  82;

SQUAW VLY 8000 NOT AVBL
SUSANVILLE     SUNNY     86  30  13 SE6       30.15F
MAMMOTH LAKES  FAIR      75  19  12 SE8       30.33F
6HR MIN TEMP:  68; 6HR MAX TEMP:  77;

BRIDGEPORT       N/A     78  20  11 VRB7      30.27F
$$

NVZ030-031-036-270100-
NORTHERN NEVADA

CITY           SKY/WX    TMP DP  RH WIND       PRES   REMARKS
ELKO           SUNNY     82  34  17 N6        30.24F
6HR MIN TEMP:  66; 6HR MAX TEMP:  83;

WINNEMUCCA     SUNNY     84  32  15 NW7       30.17F
6HR MIN TEMP:  74; 6HR MAX TEMP:  86;

WENDOVER       SUNNY     70  39  32 E6        30.30F
$$

NVZ035-037-270100-
CENTRAL NEVADA

CITY           SKY/WX    TMP DP  RH WIND       PRES   REMARKS
ELY            SUNNY     75  31  19 N9        30.32F
6HR MIN TEMP:  62; 6HR MAX TEMP:  76;

EUREKA           N/A     78  32  18 E6        30.28F
6HR MIN TEMP:  65; 6HR MAX TEMP:  79;

$$

NVZ013-014-270100-
SOUTH CENTRAL NEVADA

CITY           SKY/WX    TMP DP  RH WIND       PRES   REMARKS
TONOPAH        SUNNY     80  25  13 S6        30.24F
6HR MIN TEMP:  71; 6HR MAX TEMP:  81;

$$

NVZ017-020-022-270100-
SOUTHERN NEVADA

CITY           SKY/WX    TMP DP  RH WIND       PRES   REMARKS
LAS VEGAS      MOSUNNY   90  28  11 E6        30.03F
6HR MIN TEMP:  83; 6HR MAX TEMP:  91;

N. LAS VEGAS   SUNNY     90  33  13 E9        30.03F
6HR MIN TEMP:  81; 6HR MAX TEMP:  90;

NELLIS AFB     SUNNY     91  36  14 N8        30.01F
6HR MIN TEMP:  85; 6HR MAX TEMP:  91;

HENDERSON      SUNNY     88  36  15 N12       30.07F
6HR MIN TEMP:  81; 6HR MAX TEMP:  89;

MERCURY        SUNNY     88  27  11 SE12      30.08F
6HR MIN TEMP:  80; 6HR MAX TEMP:  89;

$$




USA.gov is the U.S. government's official web portal to all federal, state and local government web resources and services.